******** Week 357 almanac for PRN-01 ******** ID: 01 Health: 000 Eccentricity: 0.1489639282E-002 Time of Applicability(s): 61440.0000 Orbital Inclination(rad): 0.9584108231 Rate of Right Ascen(r/s): -0.8023191341E-008 SQRT(A) (m 1/2): 5153.578613 Right Ascen at Week(rad): -0.2769100099E+001 Argument of Perigee(rad): 0.037072076 Mean Anom(rad): -0.4274248714E-001 Af0(s): 0.3347396851E-003 Af1(s/s): -0.3637978807E-011 week: 357 ******** Week 357 almanac for PRN-02 ******** ID: 02 Health: 000 Eccentricity: 0.1695156097E-001 Time of Applicability(s): 61440.0000 Orbital Inclination(rad): 0.9638097164 Rate of Right Ascen(r/s): -0.7954617056E-008 SQRT(A) (m 1/2): 5153.553711 Right Ascen at Week(rad): -0.2931673600E+001 Argument of Perigee(rad): -0.829294507 Mean Anom(rad): 0.1384240145E+001 Af0(s): 0.3433227539E-004 Af1(s/s): 0.7275957614E-011 week: 357 ******** Week 357 almanac for PRN-03 ******** ID: 03 Health: 000 Eccentricity: 0.6400585175E-002 Time of Applicability(s): 61440.0000 Orbital Inclination(rad): 0.9928355091 Rate of Right Ascen(r/s): -0.7554600394E-008 SQRT(A) (m 1/2): 5153.597656 Right Ascen at Week(rad): -0.1782718619E+001 Argument of Perigee(rad): 1.204820569 Mean Anom(rad): -0.2223612261E+001 Af0(s): 0.5750656128E-003 Af1(s/s): -0.1091393642E-010 week: 357 ******** Week 357 almanac for PRN-04 ******** ID: 04 Health: 000 Eccentricity: 0.3734111786E-002 Time of Applicability(s): 61440.0000 Orbital Inclination(rad): 0.9705088981 Rate of Right Ascen(r/s): -0.7828897534E-008 SQRT(A) (m 1/2): 5153.688965 Right Ascen at Week(rad): -0.7115405088E+000 Argument of Perigee(rad): -2.893626307 Mean Anom(rad): 0.7924385210E+000 Af0(s): 0.4291534424E-004 Af1(s/s): 0.3637978807E-011 week: 357 ******** Week 357 almanac for PRN-05 ******** ID: 05 Health: 000 Eccentricity: 0.5368709564E-002 Time of Applicability(s): 61440.0000 Orbital Inclination(rad): 0.9794191693 Rate of Right Ascen(r/s): -0.7691748964E-008 SQRT(A) (m 1/2): 5153.648926 Right Ascen at Week(rad): -0.1842195578E+001 Argument of Perigee(rad): 1.420185704 Mean Anom(rad): 0.1432360553E+001 Af0(s): -0.2288818359E-003 Af1(s/s): 0.0000000000E+000 week: 357 ******** Week 357 almanac for PRN-06 ******** ID: 06 Health: 000 Eccentricity: 0.3871440887E-002 Time of Applicability(s): 61440.0000 Orbital Inclination(rad): 0.9873407420 Rate of Right Ascen(r/s): -0.7726036106E-008 SQRT(A) (m 1/2): 5153.578125 Right Ascen at Week(rad): -0.2819183298E+001 Argument of Perigee(rad): -0.593384290 Mean Anom(rad): -0.8744409544E+000 Af0(s): -0.6093978882E-003 Af1(s/s): -0.3637978807E-011 week: 357 ******** Week 357 almanac for PRN-07 ******** ID: 07 Health: 000 Eccentricity: 0.2032709122E-001 Time of Applicability(s): 61440.0000 Orbital Inclination(rad): 0.9512023118 Rate of Right Ascen(r/s): -0.7874613724E-008 SQRT(A) (m 1/2): 5153.575195 Right Ascen at Week(rad): 0.2969960577E+000 Argument of Perigee(rad): -1.998733149 Mean Anom(rad): -0.1761386324E+001 Af0(s): -0.1459121704E-003 Af1(s/s): -0.3637978807E-011 week: 357 ******** Week 357 almanac for PRN-08 ******** ID: 08 Health: 000 Eccentricity: 0.1152038574E-001 Time of Applicability(s): 61440.0000 Orbital Inclination(rad): 0.9437780845 Rate of Right Ascen(r/s): -0.8160339911E-008 SQRT(A) (m 1/2): 5153.623047 Right Ascen at Week(rad): 0.2345020698E+001 Argument of Perigee(rad): 0.512865279 Mean Anom(rad): 0.1079016168E+001 Af0(s): 0.4940032959E-003 Af1(s/s): -0.3637978807E-011 week: 357 ******** Week 357 almanac for PRN-09 ******** ID: 09 Health: 000 Eccentricity: 0.3397941589E-002 Time of Applicability(s): 61440.0000 Orbital Inclination(rad): 0.9646186516 Rate of Right Ascen(r/s): -0.7897471819E-008 SQRT(A) (m 1/2): 5153.736328 Right Ascen at Week(rad): -0.7756283986E+000 Argument of Perigee(rad): 2.074470829 Mean Anom(rad): 0.1672994052E+001 Af0(s): 0.7705688477E-003 Af1(s/s): 0.0000000000E+000 week: 357 ******** Week 357 almanac for PRN-10 ******** ID: 10 Health: 000 Eccentricity: 0.1096582413E-001 Time of Applicability(s): 61440.0000 Orbital Inclination(rad): 0.9923801086 Rate of Right Ascen(r/s): -0.7566029441E-008 SQRT(A) (m 1/2): 5153.608398 Right Ascen at Week(rad): -0.1785228565E+001 Argument of Perigee(rad): -2.259143241 Mean Anom(rad): 0.3077944435E+001 Af0(s): -0.5874633789E-003 Af1(s/s): 0.0000000000E+000 week: 357 ******** Week 357 almanac for PRN-11 ******** ID: 11 Health: 000 Eccentricity: 0.2218246460E-002 Time of Applicability(s): 61440.0000 Orbital Inclination(rad): 0.9641872195 Rate of Right Ascen(r/s): -0.7954617056E-008 SQRT(A) (m 1/2): 5153.515137 Right Ascen at Week(rad): -0.2799907047E+001 Argument of Perigee(rad): -2.290478618 Mean Anom(rad): 0.1601496915E+000 Af0(s): -0.4453659058E-003 Af1(s/s): 0.1455191523E-010 week: 357 ******** Week 357 almanac for PRN-12 ******** ID: 12 Health: 000 Eccentricity: 0.9056091309E-002 Time of Applicability(s): 61440.0000 Orbital Inclination(rad): 0.9588602315 Rate of Right Ascen(r/s): -0.7783181344E-008 SQRT(A) (m 1/2): 5153.737793 Right Ascen at Week(rad): 0.1414720523E+001 Argument of Perigee(rad): 1.551831665 Mean Anom(rad): -0.2394330541E+001 Af0(s): -0.6074905396E-003 Af1(s/s): 0.0000000000E+000 week: 357 ******** Week 357 almanac for PRN-13 ******** ID: 13 Health: 000 Eccentricity: 0.9946823120E-002 Time of Applicability(s): 61440.0000 Orbital Inclination(rad): 0.9762193813 Rate of Right Ascen(r/s): -0.7771752296E-008 SQRT(A) (m 1/2): 5153.619629 Right Ascen at Week(rad): -0.6008369803E+000 Argument of Perigee(rad): 0.999404213 Mean Anom(rad): 0.8174574630E+000 Af0(s): 0.6875991821E-003 Af1(s/s): 0.0000000000E+000 week: 357 ******** Week 357 almanac for PRN-14 ******** ID: 14 Health: 000 Eccentricity: 0.6603717804E-002 Time of Applicability(s): 61440.0000 Orbital Inclination(rad): 0.9422141431 Rate of Right Ascen(r/s): -0.7954617056E-008 SQRT(A) (m 1/2): 5153.596680 Right Ascen at Week(rad): 0.1360417004E+001 Argument of Perigee(rad): -2.757708718 Mean Anom(rad): -0.2575273986E+001 Af0(s): 0.7333755493E-003 Af1(s/s): 0.3637978807E-011 week: 357 ******** Week 357 almanac for PRN-15 ******** ID: 15 Health: 000 Eccentricity: 0.1659631729E-001 Time of Applicability(s): 61440.0000 Orbital Inclination(rad): 0.9423939065 Rate of Right Ascen(r/s): -0.8126052768E-008 SQRT(A) (m 1/2): 5153.627441 Right Ascen at Week(rad): -0.9191398663E+000 Argument of Perigee(rad): 1.497825130 Mean Anom(rad): 0.7609421054E-001 Af0(s): 0.3843307495E-003 Af1(s/s): 0.3637978807E-011 week: 357 ******** Week 357 almanac for PRN-16 ******** ID: 16 Health: 000 Eccentricity: 0.1505947113E-001 Time of Applicability(s): 61440.0000 Orbital Inclination(rad): 0.9579973673 Rate of Right Ascen(r/s): -0.7817468486E-008 SQRT(A) (m 1/2): 5153.587402 Right Ascen at Week(rad): 0.1431741118E+001 Argument of Perigee(rad): 0.926009449 Mean Anom(rad): 0.2091867430E+001 Af0(s): 0.2040863037E-003 Af1(s/s): 0.7275957614E-011 week: 357 ******** Week 357 almanac for PRN-17 ******** ID: 17 Health: 000 Eccentricity: 0.1273584366E-001 Time of Applicability(s): 61440.0000 Orbital Inclination(rad): 0.9595433323 Rate of Right Ascen(r/s): -0.8034620388E-008 SQRT(A) (m 1/2): 5153.527344 Right Ascen at Week(rad): 0.2449368094E+001 Argument of Perigee(rad): -1.127054184 Mean Anom(rad): 0.9872705594E+000 Af0(s): -0.5722045898E-004 Af1(s/s): -0.1091393642E-010 week: 357 ******** Week 357 almanac for PRN-18 ******** ID: 18 Health: 000 Eccentricity: 0.5707740784E-002 Time of Applicability(s): 61440.0000 Orbital Inclination(rad): 0.9722945476 Rate of Right Ascen(r/s): -0.7886042771E-008 SQRT(A) (m 1/2): 5153.595215 Right Ascen at Week(rad): -0.2823901712E+001 Argument of Perigee(rad): -2.860611640 Mean Anom(rad): -0.9960190436E+000 Af0(s): -0.4301071167E-003 Af1(s/s): 0.1091393642E-010 week: 357 ******** Week 357 almanac for PRN-19 ******** ID: 19 Health: 000 Eccentricity: 0.1103639603E-001 Time of Applicability(s): 61440.0000 Orbital Inclination(rad): 0.9587523735 Rate of Right Ascen(r/s): -0.8034620388E-008 SQRT(A) (m 1/2): 5153.662109 Right Ascen at Week(rad): 0.2493268557E+001 Argument of Perigee(rad): 2.922817257 Mean Anom(rad): 0.2828134016E+001 Af0(s): 0.6895065308E-003 Af1(s/s): 0.0000000000E+000 week: 357 ******** Week 357 almanac for PRN-20 ******** ID: 20 Health: 063 Eccentricity: 0.4835128784E-003 Time of Applicability(s): 61440.0000 Orbital Inclination(rad): 0.9596152377 Rate of Right Ascen(r/s): -0.7943188009E-008 SQRT(A) (m 1/2): 5153.594727 Right Ascen at Week(rad): -0.7699800835E+000 Argument of Perigee(rad): 1.040062194 Mean Anom(rad): 0.8044751769E+000 Af0(s): 0.0000000000E+000 Af1(s/s): 0.0000000000E+000 week: 357 ******** Week 357 almanac for PRN-21 ******** ID: 21 Health: 000 Eccentricity: 0.6585121155E-003 Time of Applicability(s): 61440.0000 Orbital Inclination(rad): 0.9622577593 Rate of Right Ascen(r/s): -0.7863184676E-008 SQRT(A) (m 1/2): 5153.704590 Right Ascen at Week(rad): -0.1775802598E+001 Argument of Perigee(rad): -0.420625696 Mean Anom(rad): -0.2604860041E+001 Af0(s): 0.3948211670E-003 Af1(s/s): 0.7275957614E-011 week: 357 ******** Week 357 almanac for PRN-22 ******** ID: 22 Health: 000 Eccentricity: 0.1215600967E-001 Time of Applicability(s): 61440.0000 Orbital Inclination(rad): 0.9574401009 Rate of Right Ascen(r/s): -0.7828897534E-008 SQRT(A) (m 1/2): 5153.577637 Right Ascen at Week(rad): 0.1435087713E+001 Argument of Perigee(rad): -0.994660332 Mean Anom(rad): 0.1637565312E+001 Af0(s): -0.4863739014E-004 Af1(s/s): 0.3637978807E-011 week: 357 ******** Week 357 almanac for PRN-23 ******** ID: 23 Health: 000 Eccentricity: 0.6014823914E-002 Time of Applicability(s): 61440.0000 Orbital Inclination(rad): 0.9873826868 Rate of Right Ascen(r/s): -0.7623174679E-008 SQRT(A) (m 1/2): 5153.659180 Right Ascen at Week(rad): -0.1817221951E+001 Argument of Perigee(rad): -2.740601612 Mean Anom(rad): -0.2114236734E+001 Af0(s): 0.6103515625E-003 Af1(s/s): 0.3637978807E-011 week: 357 ******** Week 357 almanac for PRN-24 ******** ID: 24 Health: 000 Eccentricity: 0.1786708832E-001 Time of Applicability(s): 61440.0000 Orbital Inclination(rad): 0.9352273400 Rate of Right Ascen(r/s): -0.8080336578E-008 SQRT(A) (m 1/2): 5153.591797 Right Ascen at Week(rad): 0.1889286841E+000 Argument of Perigee(rad): 1.132471803 Mean Anom(rad): -0.7800857812E+000 Af0(s): -0.1296997070E-003 Af1(s/s): 0.1455191523E-010 week: 357 ******** Week 357 almanac for PRN-25 ******** ID: 25 Health: 000 Eccentricity: 0.1295232773E-001 Time of Applicability(s): 61440.0000 Orbital Inclination(rad): 0.9472295413 Rate of Right Ascen(r/s): -0.7886042771E-008 SQRT(A) (m 1/2): 5153.681641 Right Ascen at Week(rad): 0.1321110244E+001 Argument of Perigee(rad): 1.153955399 Mean Anom(rad): -0.2542959647E+001 Af0(s): 0.4444122314E-003 Af1(s/s): -0.3637978807E-011 week: 357 ******** Week 357 almanac for PRN-26 ******** ID: 26 Health: 000 Eccentricity: 0.1099634171E-001 Time of Applicability(s): 61440.0000 Orbital Inclination(rad): 0.9280248208 Rate of Right Ascen(r/s): -0.8091765626E-008 SQRT(A) (m 1/2): 5153.649414 Right Ascen at Week(rad): 0.1246965343E+001 Argument of Perigee(rad): 0.706113153 Mean Anom(rad): 0.2915884009E+001 Af0(s): -0.3242492676E-003 Af1(s/s): -0.7275957614E-011 week: 357 ******** Week 357 almanac for PRN-27 ******** ID: 27 Health: 000 Eccentricity: 0.1428842545E-001 Time of Applicability(s): 61440.0000 Orbital Inclination(rad): 0.9528980796 Rate of Right Ascen(r/s): -0.8080336578E-008 SQRT(A) (m 1/2): 5153.613281 Right Ascen at Week(rad): 0.2376853796E+001 Argument of Perigee(rad): 0.873255265 Mean Anom(rad): 0.1174504974E+001 Af0(s): -0.3719329834E-004 Af1(s/s): -0.1091393642E-010 week: 357 ******** Week 357 almanac for PRN-28 ******** ID: 28 Health: 000 Eccentricity: 0.4048347473E-003 Time of Applicability(s): 61440.0000 Orbital Inclination(rad): 0.9621618855 Rate of Right Ascen(r/s): -0.7771752296E-008 SQRT(A) (m 1/2): 5153.727051 Right Ascen at Week(rad): 0.2710108875E+000 Argument of Perigee(rad): 0.196777977 Mean Anom(rad): -0.1605467813E+001 Af0(s): -0.5989074707E-003 Af1(s/s): 0.7275957614E-011 week: 357 ******** Week 357 almanac for PRN-29 ******** ID: 29 Health: 000 Eccentricity: 0.3299236298E-002 Time of Applicability(s): 61440.0000 Orbital Inclination(rad): 0.9621978382 Rate of Right Ascen(r/s): -0.8011762293E-008 SQRT(A) (m 1/2): 5153.721191 Right Ascen at Week(rad): 0.2466024294E+001 Argument of Perigee(rad): 2.741618398 Mean Anom(rad): 0.1047776664E+001 Af0(s): -0.3786087036E-003 Af1(s/s): 0.7275957614E-011 week: 357 ******** Week 357 almanac for PRN-30 ******** ID: 30 Health: 000 Eccentricity: 0.7967472076E-002 Time of Applicability(s): 61440.0000 Orbital Inclination(rad): 0.9364557231 Rate of Right Ascen(r/s): -0.8034620388E-008 SQRT(A) (m 1/2): 5153.711914 Right Ascen at Week(rad): 0.2883179808E+000 Argument of Perigee(rad): -2.334101946 Mean Anom(rad): -0.1898949871E+001 Af0(s): 0.1144409180E-003 Af1(s/s): 0.1091393642E-010 week: 357 ******** Week 357 almanac for PRN-31 ******** ID: 31 Health: 000 Eccentricity: 0.1083898544E-001 Time of Applicability(s): 61440.0000 Orbital Inclination(rad): 0.9549653584 Rate of Right Ascen(r/s): -0.7828897534E-008 SQRT(A) (m 1/2): 5153.715332 Right Ascen at Week(rad): 0.3211131868E+000 Argument of Perigee(rad): 0.935902052 Mean Anom(rad): -0.2848067902E+001 Af0(s): -0.1678466797E-003 Af1(s/s): 0.3637978807E-011 week: 357 ******** Week 357 almanac for PRN-32 ******** ID: 32 Health: 000 Eccentricity: 0.9281635284E-002 Time of Applicability(s): 61440.0000 Orbital Inclination(rad): 0.9676866132 Rate of Right Ascen(r/s): -0.7828897534E-008 SQRT(A) (m 1/2): 5153.669922 Right Ascen at Week(rad): -0.7587010554E+000 Argument of Perigee(rad): -2.012536355 Mean Anom(rad): 0.1768071649E+001 Af0(s): -0.1020431519E-003 Af1(s/s): 0.1818989404E-010 week: 357